Weather History for Worcester, MA

Change the Weather History Date:

Monday, March 3, 2014

  Actual Average Record
Temperature  
Mean Temperature 16 °F 31 °F  
Max Temperature 24 °F 39 °F 65 °F (1991)
Min Temperature 7 °F 23 °F -4 °F (1950)
Degree Days  
Heating Degree Days 49 34  
Month to date heating degree days 132 104  
Since 1 July heating degree days 5186 4941  
Cooling Degree Days 0 0  
Month to date cooling degree days 0 0  
Year to date cooling degree days 0 0  
Moisture  
Dew Point -2 °F    
Average Humidity 46    
Maximum Humidity 62    
Minimum Humidity 30    
Precipitation  
Precipitation 0.00 in 0.12 in 2.51 in (1972)
Month to date precipitation 0.00 0.38  
Year to date precipitation 7.18 7.10  
Snow  
Snow 0.00 in 0.50 in 12.10 in (1994)
Month to date snowfall 0.0 1.4  
Since 1 July snowfall 80.9 51.3  
Snow Depth 0.00 in    
Sea Level Pressure  
Sea Level Pressure 30.12 in    
Wind  
Wind Speed 11 mph (NW)    
Max Wind Speed 22 mph    
Max Gust Speed 26 mph    
Visibility 10 miles    
Events      
T = Trace of Precipitation, MM = Missing Value Source: NWS Daily Summary

Daily Weather History Graph

Daily Weather History Graph

Search for Another Location

Airport:

Trip Planner

Search our weather history database for the weather conditions in past years. The results will help you decide how hot, cold, wet, or windy it might be!

Date:

Astronomy

Mar. 03, 2014 Rise Set
Actual Time 6:19 AM EST 5:39 PM EST
Civil Twilight 5:51 AM EST 6:07 PM EST
Nautical Twilight 5:19 AM EST 6:40 PM EST
Astronomical Twilight 4:46 AM EST 7:13 PM EST
Moon 7:22 AM EST (3/3) 8:43 PM EST (3/3)
Length of Visible Light 12h 16m
Length of Day
11h 20m
Waxing Crescent, 8% of the Moon is Illuminated
Mar 3
Waxing Crescent
Mar 8
First Quarter
Mar 16
Full
Mar 23
Last Quarter
Mar 30
New

Hourly Weather History & Observations

Time (EST) Temp. Windchill Dew Point Humidity Pressure Visibility Wind Dir Wind Speed Gust Speed Precip Events Conditions
12:54 AM 23.0 °F 12.4 °F 10.0 °F 58% 29.99 in 10.0 mi NW 10.4 mph - N/A   Overcast
1:54 AM 19.9 °F 6.2 °F 8.1 °F 60% 29.99 in 10.0 mi WNW 15.0 mph - N/A   Overcast
2:54 AM 18.0 °F 3.1 °F 5.0 °F 57% 29.97 in 10.0 mi WNW 16.1 mph - N/A   Overcast
3:54 AM 16.0 °F 2.9 °F 5.0 °F 62% 30.01 in 10.0 mi NW 11.5 mph - N/A   Overcast
4:54 AM 16.0 °F 2.9 °F 5.0 °F 62% 30.02 in 10.0 mi NNW 11.5 mph - N/A   Partly Cloudy
5:54 AM 15.1 °F -0.1 °F 3.0 °F 59% 30.05 in 10.0 mi NNW 15.0 mph 21.9 mph N/A   Overcast
6:11 AM 14.0 °F -1.4 °F -0.0 °F 54% 30.01 in 10.0 mi NW 15.0 mph 21.9 mph N/A   Overcast
6:54 AM 14.0 °F 0.5 °F -0.0 °F 54% 30.08 in 10.0 mi NNW 11.5 mph - N/A   Partly Cloudy
7:54 AM 12.9 °F -0.9 °F -0.9 °F 54% 30.10 in 10.0 mi NNW 11.5 mph - N/A   Clear
8:54 AM 14.0 °F -0.2 °F -0.9 °F 52% 30.09 in 10.0 mi NNW 12.7 mph - N/A   Clear
9:54 AM 15.1 °F 2.5 °F -0.0 °F 51% 30.11 in 10.0 mi NW 10.4 mph - N/A   Clear
10:54 AM 16.0 °F 8.8 °F -2.0 °F 45% 30.12 in 10.0 mi NNW 4.6 mph 17.3 mph N/A   Clear
11:54 AM 17.1 °F 4.3 °F -4.0 °F 39% 30.12 in 10.0 mi NNW 11.5 mph - N/A   Clear
12:54 PM 17.1 °F 3.6 °F -5.1 °F 37% 30.09 in 10.0 mi NNW 12.7 mph - N/A   Clear
1:54 PM 18.0 °F 5.4 °F -2.9 °F 40% 30.10 in 10.0 mi NW 11.5 mph 19.6 mph N/A   Clear
2:54 PM 18.0 °F 4.8 °F -2.0 °F 41% 30.12 in 10.0 mi NW 12.7 mph - N/A   Clear
3:54 PM 18.0 °F 4.8 °F -2.0 °F 41% 30.14 in 10.0 mi WNW 12.7 mph - N/A   Clear
4:54 PM 18.0 °F 6.1 °F -8.0 °F 31% 30.17 in 10.0 mi NNW 10.4 mph - N/A   Clear
5:54 PM 17.1 °F 6.6 °F -9.9 °F 30% 30.19 in 10.0 mi NNW 8.1 mph - N/A   Clear
6:54 PM 15.1 °F 5.2 °F -9.9 °F 32% 30.23 in 10.0 mi NNW 6.9 mph - N/A   Clear
7:54 PM 15.1 °F 1.8 °F -11.0 °F 31% 30.25 in 10.0 mi NNW 11.5 mph - N/A   Clear
8:54 PM 14.0 °F 3.9 °F -9.9 °F 34% 30.26 in 10.0 mi NNW 6.9 mph - N/A   Clear
9:54 PM 10.0 °F 0.4 °F -8.0 °F 44% 30.27 in 10.0 mi NW 5.8 mph - N/A   Clear
10:54 PM 9.0 °F 0.6 °F -9.9 °F 42% 30.28 in 10.0 mi West 4.6 mph - N/A   Clear
11:54 PM 7.0 °F -6.6 °F -7.1 °F 53% 30.27 in 10.0 mi NW 9.2 mph - N/A   Clear